| time (UTC) | temp F | wind direction | speed MPH | gust MPH | rain 1hr in | rain 24hr in | rain mn in | humidity % | barometer mb |
| 20260509090048 | 66 | 53 | 0.0 | 4.0 | 0.00 | 0.00 | 0.00 | 74 | 1015.3 |
| 20260509085538 | 66 | 53 | 1.0 | 6.0 | 0.00 | 0.00 | 0.00 | 74 | 1015.4 |
| 20260509085038 | 66 | 51 | 3.0 | 6.0 | 0.00 | 0.00 | 0.00 | 74 | 1015.3 |
| 20260509084538 | 66 | 57 | 4.0 | 5.0 | 0.00 | 0.00 | 0.00 | 74 | 1015.3 |
| 20260509084037 | 66 | 49 | 1.0 | 5.0 | 0.00 | 0.00 | 0.00 | 74 | 1015.4 |
| 20260509083535 | 67 | 51 | 0.0 | 6.0 | 0.00 | 0.00 | 0.00 | 74 | 1015.4 |
| 20260509083036 | 67 | 50 | 3.0 | 6.0 | 0.00 | 0.00 | 0.00 | 74 | 1015.4 |
| 20260509082535 | 67 | 51 | 2.0 | 5.0 | 0.00 | 0.00 | 0.00 | 74 | 1015.5 |
| 20260509082034 | 67 | 49 | 0.0 | 2.0 | 0.00 | 0.00 | 0.00 | 75 | 1015.5 |
| 20260509081533 | 67 | 49 | 0.0 | 5.0 | 0.00 | 0.00 | 0.00 | 74 | 1015.6 |
| 20260509081032 | 67 | 44 | 2.0 | 5.0 | 0.00 | 0.00 | 0.00 | 74 | 1015.7 |
| 20260509080532 | 67 | 51 | 3.0 | 5.0 | 0.00 | 0.00 | 0.00 | 75 | 1015.6 |
| 20260509080032 | 67 | 51 | 0.0 | 4.0 | 0.00 | 0.00 | 0.00 | 75 | 1015.7 |
| 20260509075530 | 67 | 54 | 0.0 | 0.0 | 0.00 | 0.00 | 0.00 | 74 | 1015.8 |
| 20260509075029 | 68 | 54 | 0.0 | 0.0 | 0.00 | 0.00 | 0.00 | 73 | 1015.7 |
| 20260509074529 | 68 | 54 | 0.0 | 4.0 | 0.00 | 0.00 | 0.00 | 73 | 1015.8 |
| 20260509074034 | 68 | 54 | 0.0 | 6.0 | 0.00 | 0.00 | 0.00 | 73 | 1015.7 |
| 20260509073531 | 68 | 53 | 4.0 | 6.0 | 0.00 | 0.00 | 0.00 | 73 | 1015.8 |
| 20260509073027 | 68 | 52 | 2.0 | 5.0 | 0.00 | 0.00 | 0.00 | 74 | 1015.8 |
| 20260509072528 | 68 | 51 | 3.0 | 5.0 | 0.00 | 0.00 | 0.00 | 74 | 1015.8 |
| 20260509072027 | 68 | 48 | 3.0 | 5.0 | 0.00 | 0.00 | 0.00 | 74 | 1015.8 |
| 20260509071526 | 68 | 51 | 4.0 | 5.0 | 0.00 | 0.00 | 0.00 | 74 | 1015.7 |
| 20260509071025 | 68 | 42 | 4.0 | 5.0 | 0.00 | 0.00 | 0.00 | 74 | 1015.7 |
| 20260509070525 | 68 | 128 | 1.0 | 4.0 | 0.00 | 0.00 | 0.00 | 74 | 1015.6 |
| 20260509070024 | 68 | 143 | 0.0 | 1.0 | 0.00 | 0.00 | 0.00 | 74 | 1015.6 |
| 20260509065523 | 68 | 143 | 0.0 | 1.0 | 0.00 | 0.00 | 0.00 | 74 | 1015.6 |
| 20260509065023 | 68 | 143 | 0.0 | 2.0 | 0.00 | 0.00 | 0.00 | 74 | 1015.5 |
| 20260509064523 | 68 | 143 | 0.0 | 2.0 | 0.00 | 0.00 | 0.00 | 74 | 1015.5 |
| 20260509064024 | 69 | 143 | 0.0 | 1.0 | 0.00 | 0.00 | 0.00 | 74 | 1015.6 |
| 20260509063527 | 69 | 143 | 0.0 | 1.0 | 0.00 | 0.00 | 0.00 | 74 | 1015.7 |
| 20260509063026 | 69 | 143 | 0.0 | 1.0 | 0.00 | 0.00 | 0.00 | 74 | 1015.7 |
| 20260509062524 | 69 | 143 | 0.0 | 1.0 | 0.00 | 0.00 | 0.00 | 74 | 1015.8 |
| 20260509062022 | 69 | 143 | 0.0 | 1.0 | 0.00 | 0.00 | 0.00 | 74 | 1015.8 |
| 20260509061527 | 69 | 143 | 0.0 | 1.0 | 0.00 | 0.00 | 0.00 | 74 | 1015.8 |
| 20260509061027 | 69 | 143 | 0.0 | 1.0 | 0.00 | 0.00 | 0.00 | 73 | 1015.8 |
| 20260509060522 | 70 | 143 | 0.0 | 1.0 | 0.00 | 0.00 | 0.00 | 73 | 1015.8 |
| 20260509060029 | 70 | 143 | 0.0 | 1.0 | 0.00 | 0.00 | 0.00 | 74 | 1015.7 |
| 20260509055527 | 69 | 143 | 0.0 | 1.0 | 0.00 | 0.00 | 0.00 | 74 | 1015.7 |
| 20260509055025 | 69 | 143 | 0.0 | 2.0 | 0.00 | 0.00 | 0.00 | 74 | 1015.7 |
| 20260509054522 | 69 | 143 | 0.0 | 2.0 | 0.00 | 0.00 | 0.00 | 74 | 1015.8 |
| 20260509054021 | 69 | 143 | 0.0 | 2.0 | 0.00 | 0.00 | 0.00 | 74 | 1015.8 |
| 20260509053522 | 69 | 144 | 0.0 | 2.0 | 0.00 | 0.00 | 0.00 | 74 | 1015.8 |
| 20260509053021 | 69 | 143 | 0.0 | 2.0 | 0.00 | 0.00 | 0.00 | 75 | 1015.7 |
| 20260509052520 | 68 | 140 | 0.0 | 4.0 | 0.00 | 0.00 | 0.00 | 75 | 1015.8 |
| 20260509052020 | 68 | 140 | 0.0 | 4.0 | 0.00 | 0.00 | 0.00 | 76 | 1015.8 |
| 20260509051521 | 67 | 155 | 1.0 | 4.0 | 0.00 | 0.00 | 0.00 | 77 | 1015.7 |
| 20260509051020 | 67 | 188 | 0.0 | 2.0 | 0.00 | 0.00 | 0.00 | 77 | 1015.7 |
| 20260509050520 | 67 | 188 | 0.0 | 4.0 | 0.00 | 0.00 | 0.00 | 76 | 1015.7 |
| 20260509050039 | 68 | 214 | 1.0 | 5.0 | 0.00 | 0.00 | 0.00 | 75 | 1015.8 |
| 20260509045518 | 70 | 242 | 0.0 | 8.0 | 0.00 | 0.00 | 0.00 | 72 | 1015.7 |
| 20260509045018 | 74 | 246 | 2.0 | 5.0 | 0.00 | 0.00 | 0.00 | 64 | 1015.7 |
| 20260509044519 | 75 | 242 | 0.0 | 0.0 | 0.00 | 0.00 | 0.00 | 62 | 1015.5 |
| 20260509044018 | 75 | 242 | 0.0 | 1.0 | 0.00 | 0.00 | 0.00 | 62 | 1015.5 |
| 20260509043522 | 74 | 242 | 0.0 | 1.0 | 0.00 | 0.00 | 0.00 | 63 | 1015.5 |
| 20260509043017 | 74 | 242 | 0.0 | 0.0 | 0.00 | 0.00 | 0.00 | 63 | 1015.5 |
| 20260509042517 | 74 | 242 | 0.0 | 0.0 | 0.00 | 0.00 | 0.00 | 63 | 1015.4 |
| 20260509042022 | 74 | 242 | 0.0 | 1.0 | 0.00 | 0.00 | 0.00 | 63 | 1015.4 |
| 20260509041517 | 75 | 242 | 0.0 | 2.0 | 0.00 | 0.00 | 0.00 | 64 | 1015.3 |
| 20260509041016 | 75 | 242 | 0.0 | 1.0 | 0.00 | 0.00 | 0.00 | 64 | 1015.2 |
| 20260509040516 | 75 | 243 | 0.0 | 1.0 | 0.00 | 0.00 | 0.00 | 63 | 1015.1 |
| 20260509040015 | 75 | 243 | 0.0 | 1.0 | 0.00 | 0.00 | 0.00 | 63 | 1015.1 |
| 20260509035520 | 75 | 243 | 0.0 | 1.0 | 0.00 | 0.00 | 0.00 | 63 | 1015.1 |
| 20260509035015 | 75 | 243 | 0.0 | 1.0 | 0.00 | 0.00 | 0.00 | 63 | 1015.2 |
| 20260509034515 | 75 | 243 | 0.0 | 0.0 | 0.00 | 0.00 | 0.00 | 63 | 1015.2 |
| 20260509034014 | 75 | 243 | 0.0 | 0.0 | 0.00 | 0.00 | 0.00 | 63 | 1015.2 |
| 20260509033514 | 75 | 243 | 0.0 | 0.0 | 0.00 | 0.00 | 0.00 | 63 | 1015.2 |
| 20260509033015 | 76 | 243 | 0.0 | 0.0 | 0.00 | 0.00 | 0.00 | 63 | 1015.2 |
| 20260509032514 | 76 | 243 | 0.0 | 0.0 | 0.00 | 0.00 | 0.00 | 63 | 1015.2 |
| 20260509032013 | 76 | 243 | 0.0 | 1.0 | 0.00 | 0.00 | 0.00 | 62 | 1015.2 |
| 20260509031525 | 76 | 246 | 0.0 | 1.0 | 0.00 | 0.00 | 0.00 | 62 | 1015.1 |
| 20260509031013 | 77 | 261 | 0.0 | 1.0 | 0.00 | 0.00 | 0.00 | 61 | 1015.1 |
| 20260509030514 | 77 | 184 | 0.0 | 1.0 | 0.00 | 0.00 | 0.00 | 61 | 1015.1 |
| 20260509030014 | 77 | 5 | 0.0 | 1.0 | 0.00 | 0.00 | 0.00 | 60 | 1015.0 |
| 20260509025512 | 78 | 355 | 0.0 | 1.0 | 0.00 | 0.00 | 0.00 | 61 | 1015.0 |
| 20260509025012 | 78 | 327 | 0.0 | 1.0 | 0.00 | 0.00 | 0.00 | 61 | 1015.0 |
| 20260509024517 | 78 | 315 | 0.0 | 1.0 | 0.00 | 0.00 | 0.00 | 60 | 1015.0 |
| 20260509024014 | 78 | 5 | 0.0 | 1.0 | 0.00 | 0.00 | 0.00 | 60 | 1015.0 |
| 20260509023512 | 78 | 180 | 0.0 | 2.0 | 0.00 | 0.00 | 0.00 | 61 | 1014.9 |
| 20260509023018 | 78 | 205 | 0.0 | 4.0 | 0.00 | 0.00 | 0.00 | 60 | 1015.0 |
| 20260509022515 | 79 | 240 | 1.0 | 4.0 | 0.00 | 0.00 | 0.00 | 60 | 1014.9 |
| 20260509022012 | 79 | 205 | 1.0 | 3.0 | 0.00 | 0.00 | 0.00 | 59 | 1014.9 |
| 20260509021516 | 79 | 237 | 2.0 | 4.0 | 0.00 | 0.00 | 0.00 | 58 | 1014.9 |
| 20260509021011 | 79 | 237 | 0.0 | 4.0 | 0.00 | 0.00 | 0.00 | 58 | 1014.8 |
| 20260509020510 | 79 | 237 | 1.0 | 6.0 | 0.00 | 0.00 | 0.00 | 58 | 1014.8 |
| 20260509020012 | 80 | 238 | 2.0 | 6.0 | 0.00 | 0.00 | 0.00 | 57 | 1014.9 |
| 20260509015510 | 80 | 261 | 2.0 | 5.0 | 0.00 | 0.00 | 0.00 | 57 | 1015.0 |
| 20260509015010 | 80 | 290 | 2.0 | 5.0 | 0.00 | 0.00 | 0.00 | 58 | 1015.1 |
| 20260509014509 | 80 | 240 | 2.0 | 6.0 | 0.00 | 0.00 | 0.00 | 57 | 1014.9 |
| 20260509014009 | 81 | 238 | 2.0 | 6.0 | 0.00 | 0.00 | 0.00 | 57 | 1015.0 |
| 20260509013509 | 81 | 278 | 3.0 | 5.0 | 0.00 | 0.00 | 0.00 | 55 | 1015.0 |
| 20260509013012 | 81 | 269 | 2.0 | 5.0 | 0.00 | 0.00 | 0.00 | 54 | 1015.0 |
| 20260509012508 | 82 | 263 | 1.0 | 5.0 | 0.00 | 0.00 | 0.00 | 55 | 1014.9 |
| 20260509012008 | 82 | 274 | 2.0 | 5.0 | 0.00 | 0.00 | 0.00 | 55 | 1015.0 |
| 20260509011510 | 82 | 267 | 1.0 | 5.0 | 0.00 | 0.00 | 0.00 | 55 | 1015.1 |
| 20260509011010 | 82 | 266 | 0.0 | 6.0 | 0.00 | 0.00 | 0.00 | 54 | 1015.1 |
| 20260509010507 | 81 | 267 | 2.0 | 6.0 | 0.00 | 0.00 | 0.00 | 56 | 1015.1 |
| 20260509010013 | 81 | 256 | 2.0 | 7.0 | 0.00 | 0.00 | 0.00 | 58 | 1015.1 |
| 20260509005507 | 81 | 274 | 4.0 | 7.0 | 0.00 | 0.00 | 0.00 | 56 | 1015.2 |
| 20260509005007 | 81 | 277 | 1.0 | 7.0 | 0.00 | 0.00 | 0.00 | 55 | 1015.1 |
| 20260509004506 | 81 | 258 | 3.0 | 7.0 | 0.00 | 0.00 | 0.00 | 55 | 1015.2 |
| 20260509004005 | 81 | 250 | 4.0 | 6.0 | 0.00 | 0.00 | 0.00 | 54 | 1015.3 |
| 20260509003605 | 81 | 268 | 2.0 | 8.0 | 0.00 | 0.00 | 0.00 | 57 | 1015.3 |
| 20260509003004 | 81 | 251 | 5.0 | 9.0 | 0.00 | 0.00 | 0.00 | 56 | 1015.5 |
| 20260509002503 | 81 | 252 | 5.0 | 9.0 | 0.00 | 0.00 | 0.00 | 55 | 1015.5 |
| 20260509002003 | 81 | 260 | 1.0 | 10.0 | 0.00 | 0.00 | 0.00 | 57 | 1015.6 |
| 20260509001504 | 82 | 286 | 5.0 | 9.0 | 0.00 | 0.00 | 0.00 | 56 | 1015.6 |
| 20260509001002 | 81 | 253 | 2.0 | 6.0 | 0.00 | 0.00 | 0.00 | 56 | 1015.6 |
| 20260509000502 | 81 | 335 | 4.0 | 7.0 | 0.00 | 0.00 | 0.00 | 57 | 1015.6 |
| 20260509000002 | 81 | 252 | 5.0 | 8.0 | 0.00 | 0.00 | 0.00 | 55 | 1015.6 |
| 20260508235501 | 81 | 263 | 4.0 | 8.0 | 0.00 | 0.00 | 0.00 | 54 | 1015.6 |
| 20260508235105 | 81 | 311 | 1.0 | 6.0 | 0.00 | 0.00 | 0.00 | 55 | 1015.6 |
| 20260508234610 | 81 | 259 | 2.0 | 8.0 | 0.00 | 0.00 | 0.00 | 58 | 1015.7 |
| 20260508234101 | 80 | 231 | 4.0 | 8.0 | 0.00 | 0.00 | 0.00 | 57 | 1015.7 |
| 20260508233600 | 80 | 200 | 5.0 | 8.0 | 0.00 | 0.00 | 0.00 | 58 | 1015.7 |
| 20260508233101 | 81 | 238 | 4.0 | 8.0 | 0.00 | 0.00 | 0.00 | 57 | 1015.7 |
| 20260508232559 | 81 | 248 | 5.0 | 7.0 | 0.00 | 0.00 | 0.00 | 56 | 1015.8 |
| 20260508232059 | 81 | 235 | 4.0 | 6.0 | 0.00 | 0.00 | 0.00 | 57 | 1015.8 |
| 20260508231558 | 81 | 256 | 2.0 | 7.0 | 0.00 | 0.00 | 0.00 | 56 | 1015.8 |
| 20260508231057 | 81 | 267 | 2.0 | 9.0 | 0.00 | 0.00 | 0.00 | 57 | 1015.9 |
| 20260508230558 | 80 | 217 | 5.0 | 9.0 | 0.00 | 0.00 | 0.00 | 60 | 1016.0 |
| 20260508225557 | 81 | 238 | 5.0 | 7.0 | 0.00 | 0.00 | 0.00 | 56 | 1016.1 |
| 20260508225055 | 81 | 218 | 3.0 | 7.0 | 0.00 | 0.00 | 0.00 | 55 | 1016.2 |
| 20260508224556 | 80 | 236 | 0.0 | 8.0 | 0.00 | 0.00 | 0.00 | 58 | 1016.2 |
| 20260508224055 | 80 | 224 | 5.0 | 8.0 | 0.00 | 0.00 | 0.00 | 58 | 1016.4 |
| 20260508223554 | 80 | 227 | 3.0 | 8.0 | 0.00 | 0.00 | 0.00 | 59 | 1016.4 |
| 20260508223051 | 80 | 281 | 2.0 | 7.0 | 0.00 | 0.00 | 0.00 | 59 | 1016.5 |
| 20260508222551 | 80 | 269 | 1.0 | 7.0 | 0.00 | 0.00 | 0.00 | 60 | 1016.6 |
| 20260508222049 | 79 | 242 | 3.0 | 7.0 | 0.00 | 0.00 | 0.00 | 61 | 1016.7 |
| 20260508221548 | 79 | 273 | 2.0 | 9.0 | 0.00 | 0.00 | 0.00 | 61 | 1016.8 |
| 20260508221047 | 79 | 250 | 5.0 | 9.0 | 0.00 | 0.00 | 0.00 | 61 | 1016.9 |
| 20260508220546 | 79 | 240 | 5.0 | 9.0 | 0.00 | 0.00 | 0.00 | 61 | 1016.9 |
| 20260508220047 | 79 | 337 | 3.0 | 7.0 | 0.00 | 0.00 | 0.00 | 62 | 1017.1 |
| 20260508215545 | 78 | 257 | 4.0 | 10.0 | 0.00 | 0.00 | 0.00 | 63 | 1017.1 |
| 20260508215045 | 78 | 250 | 5.0 | 10.0 | 0.00 | 0.00 | 0.00 | 61 | 1017.2 |
| 20260508214551 | 79 | 346 | 2.0 | 7.0 | 0.00 | 0.00 | 0.00 | 62 | 1017.4 |
| 20260508214044 | 78 | 283 | 3.0 | 8.0 | 0.00 | 0.00 | 0.00 | 62 | 1017.3 |
| 20260508213543 | 78 | 209 | 3.0 | 9.0 | 0.00 | 0.00 | 0.00 | 63 | 1017.3 |
| 20260508213052 | 78 | 266 | 4.0 | 8.0 | 0.00 | 0.00 | 0.00 | 63 | 1017.5 |
| 20260508212543 | 77 | 298 | 5.0 | 11.0 | 0.00 | 0.00 | 0.00 | 64 | 1017.6 |
| 20260508212043 | 77 | 259 | 5.0 | 11.0 | 0.00 | 0.00 | 0.00 | 62 | 1017.7 |
| 20260508211542 | 77 | 212 | 5.0 | 8.0 | 0.00 | 0.00 | 0.00 | 63 | 1017.7 |
| 20260508211042 | 78 | 256 | 0.0 | 8.0 | 0.00 | 0.00 | 0.00 | 63 | 1017.7 |
| 20260508210540 | 77 | 274 | 3.0 | 8.0 | 0.00 | 0.00 | 0.00 | 63 | 1017.8 |
| 20260508210043 | 76 | 278 | 3.0 | 9.0 | 0.00 | 0.00 | 0.00 | 63 | 1017.9 |
| 20260508205540 | 75 | 269 | 1.0 | 9.0 | 0.00 | 0.00 | 0.00 | 63 | 1017.9 |
| 20260508205038 | 75 | 249 | 3.0 | 7.0 | 0.00 | 0.00 | 0.00 | 64 | 1017.9 |
| 20260508204538 | 75 | 343 | 3.0 | 11.0 | 0.00 | 0.00 | 0.00 | 65 | 1018.0 |
| 20260508204037 | 75 | 274 | 7.0 | 11.0 | 0.00 | 0.00 | 0.00 | 63 | 1018.0 |
| 20260508203537 | 75 | 273 | 4.0 | 10.0 | 0.00 | 0.00 | 0.00 | 65 | 1018.0 |
| 20260508203045 | 75 | 229 | 6.0 | 10.0 | 0.00 | 0.00 | 0.00 | 63 | 1018.1 |
| 20260508202537 | 75 | 211 | 1.0 | 10.0 | 0.00 | 0.00 | 0.00 | 62 | 1018.2 |
| 20260508202035 | 75 | 278 | 2.0 | 10.0 | 0.00 | 0.00 | 0.00 | 65 | 1018.2 |
| 20260508201538 | 74 | 334 | 2.0 | 9.0 | 0.00 | 0.00 | 0.00 | 64 | 1018.2 |
| 20260508201032 | 73 | 215 | 5.0 | 9.0 | 0.00 | 0.00 | 0.00 | 65 | 1018.2 |
| 20260508200532 | 73 | 234 | 6.0 | 8.0 | 0.00 | 0.00 | 0.00 | 64 | 1018.4 |
| 20260508200039 | 73 | 224 | 5.0 | 8.0 | 0.00 | 0.00 | 0.00 | 64 | 1018.2 |
| 20260508195529 | 73 | 265 | 5.0 | 8.0 | 0.00 | 0.00 | 0.00 | 64 | 1018.3 |
| 20260508195028 | 73 | 277 | 4.0 | 7.0 | 0.00 | 0.00 | 0.00 | 65 | 1018.4 |
| 20260508194527 | 73 | 301 | 2.0 | 10.0 | 0.00 | 0.00 | 0.00 | 65 | 1018.4 |
| 20260508194026 | 72 | 281 | 2.0 | 8.0 | 0.00 | 0.00 | 0.00 | 66 | 1018.4 |
| 20260508193526 | 72 | 229 | 5.0 | 9.0 | 0.00 | 0.00 | 0.00 | 65 | 1018.5 |
| 20260508193025 | 72 | 294 | 2.0 | 9.0 | 0.00 | 0.00 | 0.00 | 65 | 1018.5 |
| 20260508192525 | 72 | 279 | 2.0 | 7.0 | 0.00 | 0.00 | 0.00 | 65 | 1018.5 |
| 20260508192024 | 72 | 247 | 3.0 | 9.0 | 0.00 | 0.00 | 0.00 | 67 | 1018.5 |
| 20260508191527 | 71 | 324 | 3.0 | 9.0 | 0.00 | 0.00 | 0.00 | 67 | 1018.6 |
| 20260508191023 | 72 | 279 | 4.0 | 8.0 | 0.00 | 0.00 | 0.00 | 67 | 1018.6 |
| 20260508190523 | 71 | 157 | 2.0 | 8.0 | 0.00 | 0.00 | 0.00 | 70 | 1018.7 |
| 20260508190030 | 71 | 242 | 3.0 | 10.0 | 0.00 | 0.00 | 0.00 | 67 | 1018.9 |
| 20260508185521 | 71 | 281 | 1.0 | 10.0 | 0.00 | 0.00 | 0.00 | 69 | 1019.0 |
| 20260508185021 | 71 | 295 | 2.0 | 9.0 | 0.00 | 0.00 | 0.00 | 70 | 1018.8 |
| 20260508184520 | 70 | 269 | 4.0 | 9.0 | 0.00 | 0.00 | 0.00 | 68 | 1019.0 |
| 20260508184018 | 70 | 271 | 1.0 | 7.0 | 0.00 | 0.00 | 0.00 | 70 | 1018.9 |
| 20260508183518 | 70 | 273 | 4.0 | 7.0 | 0.00 | 0.00 | 0.00 | 70 | 1018.9 |
| 20260508183017 | 69 | 277 | 2.0 | 7.0 | 0.00 | 0.00 | 0.00 | 71 | 1018.8 |
| 20260508182515 | 69 | 269 | 3.0 | 8.0 | 0.00 | 0.00 | 0.00 | 72 | 1018.8 |
| 20260508182018 | 68 | 205 | 1.0 | 8.0 | 0.00 | 0.00 | 0.00 | 72 | 1018.8 |
| 20260508181538 | 68 | 228 | 4.0 | 7.0 | 0.00 | 0.00 | 0.00 | 73 | 1018.8 |
| 20260508181013 | 68 | 268 | 2.0 | 8.0 | 0.00 | 0.00 | 0.00 | 74 | 1018.8 |
| 20260508180513 | 67 | 261 | 4.0 | 8.0 | 0.00 | 0.00 | 0.00 | 74 | 1018.9 |
| 20260508180015 | 67 | 266 | 2.0 | 7.0 | 0.00 | 0.00 | 0.00 | 75 | 1018.9 |
| 20260508175512 | 67 | 217 | 4.0 | 7.0 | 0.00 | 0.00 | 0.00 | 76 | 1019.0 |
| 20260508175012 | 67 | 240 | 4.0 | 7.0 | 0.00 | 0.00 | 0.00 | 77 | 1018.8 |
| 20260508174517 | 66 | 272 | 4.0 | 7.0 | 0.00 | 0.00 | 0.00 | 76 | 1018.9 |
| 20260508174011 | 67 | 200 | 4.0 | 7.0 | 0.00 | 0.00 | 0.00 | 77 | 1018.8 |
| 20260508173511 | 65 | 156 | 0.0 | 6.0 | 0.00 | 0.00 | 0.00 | 77 | 1018.7 |
| 20260508173011 | 65 | 182 | 2.0 | 6.0 | 0.00 | 0.00 | 0.00 | 77 | 1018.9 |
| 20260508172610 | 65 | 182 | 1.0 | 7.0 | 0.00 | 0.00 | 0.00 | 79 | 1018.9 |
| 20260508172013 | 64 | 284 | 3.0 | 7.0 | 0.00 | 0.00 | 0.00 | 80 | 1019.0 |
| 20260508171510 | 64 | 250 | 3.0 | 5.0 | 0.00 | 0.00 | 0.00 | 80 | 1019.0 |
| 20260508171009 | 64 | 236 | 1.0 | 8.0 | 0.00 | 0.00 | 0.00 | 80 | 1019.0 |
| 20260508170513 | 64 | 247 | 4.0 | 8.0 | 0.00 | 0.00 | 0.00 | 80 | 1019.0 |
| 20260508170008 | 64 | 232 | 1.0 | 7.0 | 0.00 | 0.00 | 0.00 | 81 | 1019.0 |
| 20260508165507 | 64 | 303 | 1.0 | 8.0 | 0.00 | 0.00 | 0.00 | 82 | 1018.9 |
| 20260508165009 | 63 | 279 | 4.0 | 8.0 | 0.00 | 0.00 | 0.00 | 81 | 1018.9 |
| 20260508164617 | 63 | 252 | 4.0 | 7.0 | 0.00 | 0.00 | 0.00 | 81 | 1018.9 |
| 20260508164006 | 63 | 275 | 3.0 | 6.0 | 0.00 | 0.00 | 0.00 | 81 | 1018.8 |
| 20260508163506 | 62 | 246 | 1.0 | 6.0 | 0.00 | 0.00 | 0.00 | 81 | 1018.8 |
| 20260508163006 | 62 | 257 | 4.0 | 6.0 | 0.00 | 0.00 | 0.00 | 82 | 1018.7 |
| 20260508162506 | 62 | 251 | 3.0 | 6.0 | 0.00 | 0.00 | 0.00 | 84 | 1018.9 |
| 20260508162008 | 61 | 238 | 2.0 | 5.0 | 0.00 | 0.00 | 0.00 | 84 | 1018.7 |
| 20260508161506 | 61 | 219 | 2.0 | 6.0 | 0.00 | 0.00 | 0.00 | 85 | 1018.7 |
| 20260508161005 | 61 | 250 | 2.0 | 6.0 | 0.00 | 0.00 | 0.00 | 86 | 1018.7 |
| 20260508160505 | 60 | 252 | 2.0 | 5.0 | 0.00 | 0.00 | 0.00 | 88 | 1018.8 |
| 20260508160006 | 60 | 119 | 1.0 | 3.0 | 0.00 | 0.00 | 0.00 | 88 | 1018.7 |
| 20260508155504 | 59 | 121 | 0.0 | 5.0 | 0.00 | 0.00 | 0.00 | 89 | 1018.7 |
| 20260508155004 | 59 | 171 | 2.0 | 5.0 | 0.00 | 0.00 | 0.00 | 90 | 1018.7 |
| 20260508154503 | 58 | 191 | 1.0 | 4.0 | 0.00 | 0.00 | 0.00 | 90 | 1018.8 |
| 20260508154003 | 58 | 160 | 1.0 | 3.0 | 0.00 | 0.00 | 0.00 | 90 | 1018.7 |
| 20260508153503 | 58 | 157 | 1.0 | 3.0 | 0.00 | 0.00 | 0.00 | 91 | 1018.8 |
| 20260508153108 | 58 | 135 | 0.0 | 4.0 | 0.00 | 0.00 | 0.00 | 91 | 1018.8 |
| 20260508152502 | 58 | 172 | 1.0 | 3.0 | 0.00 | 0.00 | 0.00 | 92 | 1018.8 |
| 20260508152003 | 57 | 144 | 0.0 | 5.0 | 0.00 | 0.00 | 0.00 | 92 | 1018.8 |
| 20260508151502 | 57 | 170 | 2.0 | 5.0 | 0.00 | 0.00 | 0.00 | 92 | 1018.7 |
| 20260508151003 | 57 | 265 | 2.0 | 5.0 | 0.00 | 0.00 | 0.00 | 92 | 1018.7 |
| 20260508150502 | 57 | 268 | 1.0 | 5.0 | 0.00 | 0.00 | 0.00 | 93 | 1018.7 |
| 20260508150101 | 56 | 268 | 2.0 | 5.0 | 0.00 | 0.00 | 0.00 | 93 | 1018.7 |
| 20260508145600 | 56 | 268 | 2.0 | 3.0 | 0.00 | 0.00 | 0.00 | 93 | 1018.7 |
| 20260508145058 | 56 | 23 | 1.0 | 2.0 | 0.00 | 0.00 | 0.00 | 93 | 1018.5 |
| 20260508144600 | 56 | 44 | 0.0 | 2.0 | 0.00 | 0.00 | 0.00 | 93 | 1018.6 |
| 20260508144058 | 55 | 53 | 0.0 | 2.0 | 0.00 | 0.00 | 0.00 | 93 | 1018.5 |
| 20260508143558 | 55 | 11 | 0.0 | 3.0 | 0.00 | 0.00 | 0.00 | 93 | 1018.5 |
| 20260508143059 | 55 | 355 | 1.0 | 4.0 | 0.00 | 0.00 | 0.00 | 93 | 1018.5 |
| 20260508142556 | 55 | 24 | 1.0 | 3.0 | 0.00 | 0.00 | 0.00 | 92 | 1018.4 |
| 20260508142056 | 55 | 46 | 1.0 | 3.0 | 0.00 | 0.00 | 0.00 | 92 | 1018.3 |
| 20260508141607 | 55 | 47 | 0.0 | 2.0 | 0.00 | 0.00 | 0.00 | 92 | 1018.3 |
| 20260508141055 | 56 | 37 | 0.0 | 1.0 | 0.00 | 0.00 | 0.00 | 92 | 1018.2 |
| 20260508140600 | 55 | 37 | 0.0 | 1.0 | 0.00 | 0.00 | 0.00 | 92 | 1018.2 |
| 20260508140106 | 56 | 37 | 0.0 | 1.0 | 0.00 | 0.00 | 0.00 | 92 | 1018.1 |
| 20260508135555 | 56 | 17 | 0.0 | 1.0 | 0.00 | 0.00 | 0.00 | 92 | 1018.1 |
| 20260508135052 | 56 | 49 | 0.0 | 2.0 | 0.00 | 0.00 | 0.00 | 92 | 1018.1 |
| 20260508134553 | 56 | 95 | 0.0 | 2.0 | 0.00 | 0.00 | 0.00 | 92 | 1018.1 |
| 20260508134052 | 56 | 57 | 0.0 | 2.0 | 0.00 | 0.00 | 0.00 | 92 | 1018.1 |
| 20260508133552 | 56 | 16 | 0.0 | 1.0 | 0.00 | 0.00 | 0.00 | 92 | 1018.1 |
| 20260508133052 | 56 | 294 | 0.0 | 1.0 | 0.00 | 0.00 | 0.00 | 92 | 1018.1 |
| 20260508132551 | 56 | 360 | 0.0 | 1.0 | 0.00 | 0.00 | 0.00 | 92 | 1018.1 |
| 20260508132050 | 56 | 360 | 0.0 | 1.0 | 0.00 | 0.00 | 0.00 | 91 | 1018.1 |
| 20260508131558 | 56 | 60 | 0.0 | 1.0 | 0.00 | 0.00 | 0.00 | 92 | 1017.9 |
| 20260508131049 | 56 | 144 | 0.0 | 2.0 | 0.00 | 0.00 | 0.00 | 92 | 1017.9 |
| 20260508130551 | 57 | 146 | 0.0 | 2.0 | 0.00 | 0.00 | 0.00 | 91 | 1017.8 |
| 20260508130047 | 57 | 148 | 0.0 | 2.0 | 0.00 | 0.00 | 0.00 | 91 | 1017.7 |
| 20260508125545 | 57 | 161 | 0.0 | 2.0 | 0.00 | 0.00 | 0.00 | 91 | 1017.6 |
| 20260508125044 | 57 | 161 | 0.0 | 2.0 | 0.00 | 0.00 | 0.00 | 92 | 1017.5 |
| 20260508124544 | 57 | 161 | 0.0 | 1.0 | 0.00 | 0.00 | 0.00 | 92 | 1017.5 |
| 20260508124046 | 57 | 161 | 0.0 | 2.0 | 0.00 | 0.00 | 0.00 | 92 | 1017.4 |
| 20260508123544 | 57 | 161 | 0.0 | 2.0 | 0.00 | 0.00 | 0.00 | 92 | 1017.3 |
| 20260508123044 | 57 | 161 | 0.0 | 2.0 | 0.00 | 0.00 | 0.00 | 92 | 1017.5 |
| 20260508122542 | 57 | 161 | 0.0 | 2.0 | 0.00 | 0.00 | 0.00 | 92 | 1017.5 |
| 20260508122042 | 57 | 161 | 0.0 | 1.0 | 0.00 | 0.00 | 0.00 | 93 | 1017.4 |
| 20260508121544 | 58 | 161 | 0.0 | 1.0 | 0.00 | 0.00 | 0.00 | 93 | 1017.4 |
| 20260508121041 | 58 | 161 | 0.0 | 2.0 | 0.00 | 0.00 | 0.00 | 93 | 1017.3 |
| 20260508120540 | 58 | 161 | 0.0 | 1.0 | 0.00 | 0.00 | 0.00 | 93 | 1017.3 |
| 20260508120047 | 58 | 161 | 0.0 | 1.0 | 0.00 | 0.00 | 0.00 | 93 | 1017.3 |
| 20260508115540 | 58 | 161 | 0.0 | 1.0 | 0.00 | 0.00 | 0.00 | 93 | 1017.2 |
| 20260508115038 | 58 | 161 | 0.0 | 1.0 | 0.00 | 0.00 | 0.00 | 93 | 1017.2 |
| 20260508114538 | 58 | 161 | 0.0 | 1.0 | 0.00 | 0.00 | 0.00 | 93 | 1017.2 |
| 20260508114038 | 58 | 161 | 0.0 | 1.0 | 0.00 | 0.00 | 0.00 | 93 | 1017.3 |
| 20260508113538 | 58 | 161 | 0.0 | 1.0 | 0.00 | 0.00 | 0.00 | 93 | 1017.2 |
| 20260508113039 | 58 | 161 | 0.0 | 1.0 | 0.00 | 0.00 | 0.00 | 93 | 1017.3 |
| 20260508112537 | 58 | 161 | 0.0 | 1.0 | 0.00 | 0.00 | 0.00 | 93 | 1017.2 |
| 20260508112037 | 58 | 161 | 0.0 | 1.0 | 0.00 | 0.00 | 0.00 | 93 | 1017.2 |
| 20260508111551 | 58 | 161 | 0.0 | 1.0 | 0.00 | 0.00 | 0.00 | 93 | 1017.2 |
| 20260508111037 | 58 | 161 | 0.0 | 1.0 | 0.00 | 0.00 | 0.00 | 93 | 1017.2 |
| 20260508110536 | 58 | 161 | 0.0 | 1.0 | 0.00 | 0.00 | 0.00 | 93 | 1017.2 |
| 20260508110042 | 58 | 161 | 0.0 | 0.0 | 0.00 | 0.00 | 0.00 | 92 | 1017.1 |
| 20260508105536 | 58 | 161 | 0.0 | 1.0 | 0.00 | 0.00 | 0.00 | 92 | 1017.1 |
| 20260508105034 | 58 | 161 | 0.0 | 1.0 | 0.00 | 0.00 | 0.00 | 92 | 1017.2 |
| 20260508104533 | 58 | 161 | 0.0 | 1.0 | 0.00 | 0.00 | 0.00 | 92 | 1017.2 |
| 20260508104032 | 58 | 161 | 0.0 | 1.0 | 0.00 | 0.00 | 0.00 | 92 | 1017.2 |
| 20260508103532 | 59 | 161 | 0.0 | 1.0 | 0.00 | 0.00 | 0.00 | 92 | 1017.2 |
| 20260508103039 | 59 | 161 | 0.0 | 1.0 | 0.00 | 0.00 | 0.00 | 92 | 1017.2 |
| 20260508102531 | 59 | 161 | 0.0 | 1.0 | 0.00 | 0.00 | 0.00 | 92 | 1017.2 |
| 20260508102030 | 59 | 161 | 0.0 | 1.0 | 0.00 | 0.00 | 0.00 | 92 | 1017.3 |
| 20260508101539 | 59 | 161 | 0.0 | 1.0 | 0.00 | 0.00 | 0.00 | 91 | 1017.3 |
| 20260508101030 | 59 | 161 | 0.0 | 1.0 | 0.00 | 0.00 | 0.00 | 91 | 1017.3 |
| 20260508100527 | 60 | 161 | 0.0 | 1.0 | 0.00 | 0.00 | 0.00 | 91 | 1017.3 |
| 20260508100029 | 60 | 161 | 0.0 | 1.0 | 0.00 | 0.00 | 0.00 | 91 | 1017.2 |
| 20260508095526 | 60 | 161 | 0.0 | 1.0 | 0.00 | 0.00 | 0.00 | 91 | 1017.2 |
| 20260508095026 | 60 | 161 | 0.0 | 1.0 | 0.00 | 0.00 | 0.00 | 91 | 1017.3 |
| 20260508094525 | 60 | 161 | 0.0 | 1.0 | 0.00 | 0.00 | 0.00 | 91 | 1017.3 |
| 20260508094025 | 60 | 161 | 0.0 | 1.0 | 0.00 | 0.00 | 0.00 | 90 | 1017.3 |
| 20260508093523 | 60 | 161 | 0.0 | 1.0 | 0.00 | 0.00 | 0.00 | 90 | 1017.3 |
| 20260508093023 | 61 | 161 | 0.0 | 1.0 | 0.00 | 0.00 | 0.00 | 90 | 1017.4 |
| 20260508092521 | 61 | 161 | 0.0 | 1.0 | 0.00 | 0.00 | 0.00 | 90 | 1017.2 |
| 20260508092021 | 61 | 161 | 0.0 | 1.0 | 0.00 | 0.00 | 0.00 | 89 | 1017.3 |
| 20260508091520 | 61 | 161 | 0.0 | 1.0 | 0.00 | 0.00 | 0.00 | 89 | 1017.2 |
| 20260508091020 | 61 | 161 | 0.0 | 1.0 | 0.00 | 0.00 | 0.00 | 89 | 1017.2 |
| 20260508090519 | 62 | 161 | 0.0 | 1.0 | 0.00 | 0.00 | 0.00 | 89 | 1017.2 |